Weather History for Big Bear City, CA

Change the Weather History Date:

Tuesday, November 26, 2013

  Actual Average (KBUO) Record (KBUO)
Temperature  
Mean Temperature 37 °F -  
Max Temperature 50 °F 63 °F 78 °F (1998)
Min Temperature 24 °F 44 °F 42 °F (2000)
Degree Days  
Heating Degree Days 28    
Moisture  
Dew Point 23 °F    
Average Humidity 63    
Maximum Humidity 86    
Minimum Humidity 28    
Precipitation  
Precipitation 0.00 in - - ()
Sea Level Pressure  
Sea Level Pressure 30.29 in    
Wind  
Wind Speed 2 mph (ENE)    
Max Wind Speed 14 mph    
Max Gust Speed 17 mph    
Visibility 10 miles    
Events      
Averages and records for this station are not official NWS values.
T = Trace of Precipitation, MM = Missing Value Source: NWS Daily Summary

Daily Weather History Graph

Daily Weather History Graph

Search for Another Location

Airport:

Trip Planner

Search our weather history database for the weather conditions in past years. The results will help you decide how hot, cold, wet, or windy it might be!

Date:

Astronomy

Nov. 26, 2013 Rise Set
Actual Time 6:31 AM PST 4:38 PM PST
Civil Twilight 6:03 AM PST 5:05 PM PST
Nautical Twilight 5:33 AM PST 5:36 PM PST
Astronomical Twilight 5:02 AM PST 6:06 PM PST
Moon No Moon Rise 12:32 PM PST (11/26)
Length of Visible Light 11h 01m
Length of Day
10h 07m
Last Quarter, 40% of the Moon is Illuminated
Nov 26
Last Quarter
Dec 2
New
Dec 9
First Quarter
Dec 17
Full
Dec 25
Last Quarter

Hourly Weather History & Observations

Time (PST) Temp. Windchill Dew Point Humidity Pressure Visibility Wind Dir Wind Speed Gust Speed Precip Events Conditions
12:15 AM 30.2 °F - 19.4 °F 64% 30.37 in 10.0 mi Calm Calm - N/A   Clear
12:35 AM 30.2 °F - 19.4 °F 64% 30.36 in 10.0 mi Calm Calm - N/A   Clear
12:55 AM 28.4 °F - 21.2 °F 74% 30.36 in 10.0 mi Calm Calm - N/A   Clear
1:15 AM 28.4 °F - 21.2 °F 74% 30.36 in 10.0 mi Calm Calm - N/A   Clear
1:35 AM 28.4 °F - 21.2 °F 74% 30.35 in 10.0 mi Calm Calm - N/A   Clear
1:55 AM 28.4 °F - 21.2 °F 74% 30.35 in 10.0 mi Calm Calm - N/A   Clear
2:15 AM 26.6 °F - 21.2 °F 80% 30.36 in 10.0 mi Calm Calm - N/A   Clear
2:35 AM 26.6 °F - 21.2 °F 80% 30.35 in 10.0 mi Calm Calm - N/A   Clear
2:55 AM 26.6 °F - 21.2 °F 80% 30.35 in 10.0 mi Calm Calm - N/A   Clear
3:15 AM 26.6 °F - 21.2 °F 80% 30.34 in 10.0 mi Calm Calm - N/A   Clear
3:35 AM 26.6 °F - 21.2 °F 80% 30.34 in 10.0 mi Calm Calm - N/A   Clear
3:55 AM 26.6 °F - 21.2 °F 80% 30.34 in 10.0 mi Calm Calm - N/A   Clear
4:15 AM 26.6 °F - 21.2 °F 80% 30.34 in 10.0 mi Calm Calm - N/A   Clear
4:35 AM 26.6 °F 22.6 °F 21.2 °F 80% 30.34 in 10.0 mi SE 3.5 mph - N/A   Clear
4:55 AM 26.6 °F - 21.2 °F 80% 30.34 in 10.0 mi Calm Calm - N/A   Clear
5:15 AM 26.6 °F - 21.2 °F 80% 30.34 in 10.0 mi Calm Calm - N/A   Clear
5:35 AM 26.6 °F - 21.2 °F 80% 30.33 in 10.0 mi Calm Calm - N/A   Clear
5:55 AM 24.8 °F - 21.2 °F 86% 30.34 in 10.0 mi Calm Calm - N/A   Clear
6:15 AM 24.8 °F - 19.4 °F 80% 30.33 in 10.0 mi Calm Calm - N/A   Clear
6:35 AM 24.8 °F - 19.4 °F 80% 30.34 in 10.0 mi Calm Calm - N/A   Clear
6:55 AM 24.8 °F - 21.2 °F 86% 30.34 in 10.0 mi Calm Calm - N/A   Clear
7:15 AM 26.6 °F - 21.2 °F 80% 30.34 in 10.0 mi Calm Calm - N/A   Clear
7:35 AM 28.4 °F - 21.2 °F 74% 30.34 in 10.0 mi Calm Calm - N/A   Clear
7:55 AM 30.2 °F - 23.0 °F 75% 30.34 in 10.0 mi Calm Calm - N/A   Clear
8:15 AM 32.0 °F - 24.8 °F 75% 30.34 in 10.0 mi Calm Calm - N/A   Clear
8:35 AM 35.6 °F - 28.4 °F 75% 30.34 in 10.0 mi Calm Calm - N/A   Clear
8:55 AM 42.8 °F 41.1 °F 23.0 °F 46% 30.34 in 10.0 mi ESE 3.5 mph - N/A   Clear
9:15 AM 48.2 °F - 19.4 °F 32% 30.34 in 10.0 mi East 8.1 mph - N/A   Clear
9:35 AM 50.0 °F - 17.6 °F 28% 30.34 in 10.0 mi ENE 12.7 mph - N/A   Clear
9:55 AM 50.0 °F - 19.4 °F 30% 30.34 in 10.0 mi ENE 11.5 mph - N/A   Clear
10:15 AM 48.2 °F - 19.4 °F 32% 30.33 in 10.0 mi ENE 13.8 mph - N/A   Clear
10:35 AM 48.2 °F - 19.4 °F 32% 30.33 in 10.0 mi ENE 12.7 mph - N/A   Clear
10:55 AM 50.0 °F - 19.4 °F 30% 30.32 in 10.0 mi NE 9.2 mph - N/A   Clear
11:15 AM 50.0 °F - 21.2 °F 32% 30.31 in 10.0 mi ENE 12.7 mph - N/A   Clear
11:35 AM 50.0 °F - 21.2 °F 32% 30.30 in 10.0 mi East 12.7 mph - N/A   Clear
11:55 AM 50.0 °F - 23.0 °F 35% 30.30 in 10.0 mi East 9.2 mph 17.3 mph N/A   Clear
12:15 PM 50.0 °F - 23.0 °F 35% 30.28 in 10.0 mi ENE 12.7 mph - N/A   Clear
12:35 PM 50.0 °F - 23.0 °F 35% 30.28 in 10.0 mi ENE 13.8 mph - N/A   Clear
12:55 PM 50.0 °F - 21.2 °F 32% 30.27 in 10.0 mi ENE 11.5 mph - N/A   Clear
1:15 PM 50.0 °F - 23.0 °F 35% 30.27 in 10.0 mi ENE 12.7 mph - N/A   Clear
1:35 PM 48.2 °F - 23.0 °F 37% 30.27 in 10.0 mi East 9.2 mph - N/A   Clear
1:55 PM 50.0 °F - 23.0 °F 35% 30.25 in 10.0 mi ENE 10.4 mph - N/A   Clear
2:15 PM 48.2 °F - 23.0 °F 37% 30.25 in 10.0 mi ENE 9.2 mph - N/A   Clear
2:35 PM 48.2 °F - 24.8 °F 40% 30.24 in 10.0 mi ENE 8.1 mph - N/A   Clear
2:55 PM 48.2 °F - 23.0 °F 37% 30.24 in 10.0 mi ENE 9.2 mph - N/A   Clear
3:15 PM 46.4 °F 42.4 °F 23.0 °F 40% 30.24 in 10.0 mi East 8.1 mph - N/A   Clear
3:35 PM 46.4 °F 43.5 °F 23.0 °F 40% 30.24 in 10.0 mi ENE 5.8 mph - N/A   Clear
3:55 PM 46.4 °F - 23.0 °F 40% 30.23 in 10.0 mi Calm Calm - N/A   Clear
4:15 PM 44.6 °F 43.1 °F 23.0 °F 43% 30.23 in 10.0 mi SE 3.5 mph - N/A   Clear
4:35 PM 44.6 °F - 23.0 °F 43% 30.23 in 10.0 mi Calm Calm - N/A   Clear
4:55 PM 41.0 °F - 24.8 °F 53% 30.23 in 10.0 mi Calm Calm - N/A   Clear
5:15 PM 39.2 °F - 26.6 °F 61% 30.24 in 10.0 mi Calm Calm - N/A   Clear
5:35 PM 37.4 °F - 26.6 °F 65% 30.25 in 10.0 mi Calm Calm - N/A   Clear
5:55 PM 37.4 °F - 26.6 °F 65% 30.24 in 10.0 mi Calm Calm - N/A   Clear
6:15 PM 35.6 °F - 26.6 °F 70% 30.25 in 10.0 mi Calm Calm - N/A   Clear
6:35 PM 33.8 °F - 26.6 °F 75% 30.25 in 10.0 mi Calm Calm - N/A   Clear
6:55 PM 33.8 °F - 26.6 °F 75% 30.25 in 10.0 mi Calm Calm - N/A   Clear
7:15 PM 32.0 °F - 26.6 °F 80% 30.25 in 10.0 mi Calm Calm - N/A   Clear
7:35 PM 32.0 °F - 26.6 °F 80% 30.25 in 10.0 mi Calm Calm - N/A   Clear
7:55 PM 32.0 °F - 24.8 °F 75% 30.25 in 10.0 mi Calm Calm - N/A   Clear
8:15 PM 32.0 °F - 26.6 °F 80% 30.25 in 10.0 mi Calm Calm - N/A   Clear
8:35 PM 32.0 °F - 26.6 °F 80% 30.25 in 10.0 mi Calm Calm - N/A   Clear
8:55 PM 32.0 °F - 26.6 °F 80% 30.25 in 10.0 mi Calm Calm - N/A   Clear
9:15 PM 32.0 °F - 26.6 °F 80% 30.25 in 10.0 mi Calm Calm - N/A   Clear
9:35 PM 32.0 °F - 26.6 °F 80% 30.24 in 10.0 mi Calm Calm - N/A   Clear
9:55 PM 32.0 °F - 26.6 °F 80% 30.25 in 10.0 mi Calm Calm - N/A   Clear
10:15 PM 32.0 °F - 26.6 °F 80% 30.24 in 10.0 mi Calm Calm - N/A   Clear
10:35 PM 32.0 °F - 26.6 °F 80% 30.23 in 10.0 mi Calm Calm - N/A   Clear
10:55 PM 32.0 °F - 26.6 °F 80% 30.23 in 10.0 mi Calm Calm - N/A   Clear
11:15 PM 32.0 °F 28.7 °F 26.6 °F 80% 30.23 in 10.0 mi West 3.5 mph - N/A   Clear
11:35 PM 30.2 °F - 26.6 °F 86% 30.22 in 7.0 mi Calm Calm - N/A   Clear
11:55 PM 32.0 °F - 24.8 °F 75% 30.22 in 10.0 mi Calm Calm - N/A   Clear